Raleigh, NC

8:20 PM EST on February 07, 2016 (GMT -0500)
Raleigh-Durham International

Weather History for KRDU - July, 2014

Change the Weather History Date:

Thursday, July 3, 2014

  Actual Average Record
Temperature  
Mean Temperature 82 °F 80 °F  
Max Temperature 90 °F 90 °F 101 °F (2012)
Min Temperature 74 °F 69 °F 56 °F (1957)
Degree Days  
Heating Degree Days 0 0  
Month to date heating degree days 0 0  
Since 1 June heating degree days 0 4  
Since 1 July heating degree days 0 0  
Cooling Degree Days 17 15  
Month to date cooling degree days 58 45  
Year to date cooling degree days 648 601  
Since 1 June cooling degree days 435 392  
Growing Degree Days 32 (Base 50)    
Moisture  
Dew Point 71 °F    
Average Humidity 70    
Maximum Humidity 87    
Minimum Humidity 52    
Precipitation  
Precipitation T in 0.13 in 1.34 in (1968)
Month to date precipitation T 0.39  
Year to date precipitation 22.58 20.94  
Sea Level Pressure  
Sea Level Pressure 29.95 in    
Wind  
Wind Speed 7 mph (South)    
Max Wind Speed 29 mph    
Max Gust Speed 37 mph    
Visibility 10 miles    
Events Rain    
T = Trace of Precipitation, MM = Missing Value Source: NWS Daily Summary

Daily Weather History Graph

Daily Weather History Graph

Search for Another Location

Airport or City:

Trip Planner

Search our weather history database for the weather conditions in past years. The results will help you decide how hot, cold, wet, or windy it might be!

Date:

Astronomy

Jul. 03, 2014 Rise Set
Actual Time 6:03 AM EDT 8:35 PM EDT
Civil Twilight 5:33 AM EDT 9:05 PM EDT
Nautical Twilight 4:56 AM EDT 9:42 PM EDT
Astronomical Twilight 4:14 AM EDT 10:23 PM EDT
Moon 11:49 AM EDT (7/3) No Moon Set
Length of Visible Light 15h 31m
Length of Day
14h 32m
Waxing Crescent, 33% of the Moon is Illuminated
Jul 3
Waxing Crescent
Jul 5
First Quarter
Jul 12
Full
Jul 18
Last Quarter
Jul 26
New

Hourly Weather History & Observations

Time (EDT) Temp. Heat Index Dew Point Humidity Pressure Visibility Wind Dir Wind Speed Gust Speed Precip Events Conditions
12:51 AM 81.0 °F 84.1 °F 69.1 °F 67% 29.97 in 10.0 mi South 8.1 mph - N/A   Mostly Cloudy
1:51 AM 79.0 °F - 69.1 °F 72% 29.97 in 10.0 mi SSW 8.1 mph 18.4 mph N/A   Mostly Cloudy
2:51 AM 78.1 °F - 70.0 °F 76% 29.96 in 10.0 mi SSW 8.1 mph - N/A   Scattered Clouds
3:51 AM 77.0 °F - 71.1 °F 82% 29.96 in 10.0 mi SSW 6.9 mph - N/A   Scattered Clouds
4:51 AM 75.9 °F - 71.1 °F 85% 29.96 in 10.0 mi SSW 5.8 mph - N/A   Scattered Clouds
5:51 AM 75.0 °F - 72.0 °F 90% 29.97 in 8.0 mi SSW 4.6 mph - N/A   Scattered Clouds
6:03 AM 75.2 °F - 71.6 °F 89% 29.99 in 8.0 mi South 5.8 mph - N/A   Mostly Cloudy
6:51 AM 75.9 °F - 72.0 °F 87% 29.99 in 7.0 mi South 6.9 mph - N/A   Mostly Cloudy
7:33 AM 78.8 °F - 71.6 °F 78% 30.02 in 10.0 mi South 6.9 mph - N/A   Mostly Cloudy
7:51 AM 79.0 °F - 73.0 °F 82% 30.01 in 10.0 mi SSW 5.8 mph - N/A   Scattered Clouds
8:51 AM 81.0 °F 85.8 °F 73.0 °F 77% 30.01 in 10.0 mi South 9.2 mph 16.1 mph N/A   Mostly Cloudy
9:51 AM 84.0 °F 89.6 °F 72.0 °F 67% 30.00 in 10.0 mi South 11.5 mph - N/A   Mostly Cloudy
10:51 AM 87.1 °F 93.6 °F 72.0 °F 61% 29.99 in 10.0 mi South 10.4 mph - N/A   Mostly Cloudy
11:51 AM 86.0 °F 92.2 °F 72.0 °F 63% 29.97 in 10.0 mi Variable 3.5 mph - N/A   Mostly Cloudy
12:51 PM 89.1 °F 96.0 °F 72.0 °F 57% 29.97 in 10.0 mi South 8.1 mph - N/A   Mostly Cloudy
1:51 PM 90.0 °F 95.4 °F 70.0 °F 52% 29.96 in 10.0 mi South 9.2 mph - N/A   Mostly Cloudy
2:51 PM 75.9 °F - 68.0 °F 76% 29.94 in 10.0 mi Variable 5.8 mph - 0.00 in   Overcast
3:51 PM 80.1 °F 82.7 °F 68.0 °F 67% 29.91 in 10.0 mi ESE 6.9 mph - 0.00 in   Overcast
4:51 PM 81.0 °F 83.8 °F 68.0 °F 65% 29.91 in 10.0 mi ENE 4.6 mph - N/A   Overcast
5:51 PM 82.0 °F 84.9 °F 68.0 °F 62% 29.88 in 10.0 mi NNE 4.6 mph - N/A   Overcast
6:51 PM 80.1 °F 82.9 °F 69.1 °F 69% 29.88 in 10.0 mi NE 9.2 mph - N/A   Overcast
7:51 PM 79.0 °F - 71.1 °F 77% 29.88 in 10.0 mi NE 6.9 mph - N/A   Overcast
8:51 PM 78.1 °F - 71.1 °F 79% 29.87 in 10.0 mi North 4.6 mph - 0.00 in Rain Light Rain
9:51 PM 77.0 °F - 71.1 °F 82% 29.88 in 10.0 mi North 6.9 mph - 0.00 in   Overcast
10:51 PM 75.9 °F - 68.0 °F 76% 29.88 in 10.0 mi North 5.8 mph - N/A   Overcast
11:51 PM 73.9 °F - 69.1 °F 85% 29.87 in 10.0 mi Variable 6.9 mph - 0.00 in   Mostly Cloudy